This is the latest recevied weather packets stored in our database for station/object WB6ANP. If no packets are shown the sender has not sent any weather packets the latest 10 day(s).
| Time | Temp. | Humidity | Pressure | Rain* | Wind** | Luminosity | Snow |
|---|---|---|---|---|---|---|---|
| 1777220557 | 23.89° C | 85% | 1008.6 hPa | 0 mm | - | 313 W/m² | - |
| 1777220253 | 23.89° C | 86% | 1008.8 hPa | 0 mm | - | 193 W/m² | - |
| 1777219948 | 23.89° C | 86% | 1008.6 hPa | 0 mm | - | 327 W/m² | - |
| 1777219646 | 23.89° C | 86% | 1008.8 hPa | 0 mm | - | 169 W/m² | - |
| 1777219343 | 23.33° C | 86% | 1008.8 hPa | 0 mm | - | 163 W/m² | - |
| 1777219039 | 23.33° C | 87% | 1009 hPa | 0 mm | - | 228 W/m² | - |
| 1777218735 | 23.33° C | 87% | 1008.7 hPa | 0 mm | - | 181 W/m² | - |
| 1777218430 | 23.33° C | 87% | 1008.8 hPa | 0 mm | - | 87 W/m² | - |
| 1777218126 | 23.33° C | 88% | 1008.8 hPa | 0 mm | - | 70 W/m² | - |
| 1777217823 | 22.78° C | 88% | 1008.6 hPa | 0 mm | - | 67 W/m² | - |
| 1777217518 | 22.78° C | 88% | 1008.8 hPa | 0 mm | - | 65 W/m² | - |
| 1777217214 | 22.78° C | 88% | 1008.7 hPa | 0 mm | - | 76 W/m² | - |
| 1777216911 | 22.78° C | 88% | 1008.6 hPa | 0 mm | - | 92 W/m² | - |
| 1777216607 | 22.78° C | 88% | 1008.6 hPa | 0 mm | - | 80 W/m² | - |
| 1777216304 | 22.78° C | 88% | 1008.4 hPa | 0 mm | - | 108 W/m² | - |
| 1777216002 | 22.78° C | 88% | 1008.6 hPa | 0 mm | - | 44 W/m² | - |
| 1777215699 | 22.78° C | 88% | 1008.3 hPa | 0 mm | - | 54 W/m² | - |
| 1777215398 | 22.78° C | 88% | 1008.3 hPa | 0 mm | - | 72 W/m² | - |
| 1777215096 | 22.78° C | 88% | 1008.3 hPa | 0 mm | - | 117 W/m² | - |
| 1777214790 | 22.78° C | 88% | 1008.4 hPa | 0 mm | - | 127 W/m² | - |
| 1777214485 | 22.78° C | 88% | 1008.5 hPa | 0 mm | - | 157 W/m² | - |
| 1777214181 | 22.78° C | 88% | 1008.1 hPa | 0 mm | - | 161 W/m² | - |
| 1777213880 | 22.78° C | 89% | 1008.3 hPa | 0 mm | - | 189 W/m² | - |
| 1777213580 | 22.78° C | 89% | 1008.3 hPa | 0 mm | - | 140 W/m² | - |
| 1777213277 | 22.78° C | 89% | 1008.3 hPa | 0 mm | - | 116 W/m² | - |
* Rain latest hour (hover to see other rain measurements)
** Current wind speed in m/s (hover to see current wind gust speed)